Location: Castel di Leva
(41.7833°N, 12.5333°E)
Time: 09:34:14
(UTC+00:00)

Daily predictions for brighter satellites

Satellite Brightness Start Highest point End
(mag) Time Altitude Azimuth Time Altitude Azimuth Time Altitude Azimuth
SMAP 3.1 16:35:37 10° SSE 16:40:16 89° WSW 16:44:57 10° NNW
Cosmos 1626 Rocket 4.2 16:36:39 10° NNW 16:41:03 62° W 16:45:23 10° S
YAOGAN 6 3.3 16:38:51 10° S 16:42:26 60° W 16:46:04 10° NNW
Cosmos 1602 Rocket 3.8 16:38:03 10° N 16:42:34 82° W 16:47:00 10° S
Cosmos 1110 Rocket 4.3 16:37:33 10° S 16:42:34 48° ESE 16:47:35 10° NNE
Cosmos 1703 3.2 16:39:51 10° N 16:43:48 76° E 16:47:45 10° SSE
Cosmos 2058 Rocket 4.3 16:43:59 10° SE 16:47:20 21° E 16:50:43 10° NE
Cosmos 1953 Rocket 4.3 16:46:58 10° NNE 16:50:54 31° ENE 16:54:51 10° SE
COSMOS 2487 2.3 16:48:23 10° NNW 16:51:49 67° ENE 16:55:13 10° SSE
Aureole 1 Rocket 4.3 16:49:18 10° NW 16:52:00 31° WSW 16:54:50 10° S
Meteor 1-11 4.3 16:46:28 10° N 16:52:07 59° ENE 16:57:48 10° SSE
Cosmos 1741 Rocket 4.0 16:47:04 10° NNW 16:52:20 79° ENE 16:57:33 10° SSE
Envisat 4.3 16:47:56 10° S 16:52:48 46° W 16:57:42 10° NNW
Cosmos 1300 3.3 16:50:27 10° SSE 16:53:55 35° E 16:57:26 10° NNE
FALCON 9 DEB 4.0 16:51:28 10° SSW 16:54:17 29° SE 16:56:48 12° ENE
FengYun 1-2 T 4.3 16:49:20 10° SSE 16:54:58 78° ENE 17:00:38 10° N
NOAA 11 4.1 16:51:16 10° SSE 16:56:41 72° ENE 17:02:06 10° N
Feng Yun 1-1 Rocket 4.4 16:54:20 10° SSE 17:00:09 67° ENE 17:06:03 10° N
Helios 1A Rocket 3.6 16:56:59 10° SE 17:00:40 32° ENE 17:04:21 10° N
BREEZE-M R/B 4.3 16:57:25 10° WNW 17:00:43 33° N 17:06:25 11° ENE
Cosmos 1939 Rocket 2.9 17:04:42 10° SSE 17:08:38 56° ENE 17:12:31 10° N
Cosmos 1850 Rocket 4.4 17:04:11 10° NNW 17:09:28 70° WSW 17:14:46 10° S
Cosmos 2297 Rocket 3.1 17:06:53 10° N 17:11:45 28° NE 17:15:53 13° ESE
PSLV R/B 4.0 17:07:44 10° NNE 17:11:51 54° E 17:15:54 10° S
COSMO-SKYMED 1 2.5 17:10:50 10° NNE 17:15:11 73° ESE 17:19:30 10° S
Okean O Rocket 3.4 17:11:29 10° SSW 17:15:31 36° W 17:19:34 10° NNW
Aureole 3 Rocket 3.3 17:13:25 10° SSE 17:16:43 39° E 17:21:01 10° NNE
Cosmos 1689 Rocket 1.8 17:15:00 10° NNE 17:17:54 79° E 17:20:46 10° S
H-2A R/B 3.0 17:13:51 10° ESE 17:18:23 28° ENE 17:22:59 10° N
MOS 1 Rocket 4.2 17:17:19 10° NE 17:21:18 27° E 17:25:28 10° SSE
Cosmos 2058 4.5 17:19:44 10° NNE 17:21:44 17° NE 17:21:44 17° NE
IRS-1C Rocket 4.0 17:18:14 10° SSE 17:23:30 84° ENE 17:28:48 10° NNW
CZ-4 R/B 1.5 17:22:34 10° SSE 17:26:20 47° ENE 17:30:05 10° N
Cosmos 1340 3.2 17:24:27 10° N 17:27:58 36° ENE 17:31:02 13° SE
Cosmos 1553 Rocket 4.2 17:22:05 10° SSE 17:28:09 49° E 17:34:12 10° NNE
ERS-2 4.5 17:26:39 10° NNW 17:29:41 25° WNW 17:32:42 10° SW
Cosmos 1825 Rocket 4.1 17:25:19 10° NNW 17:29:44 64° W 17:34:06 10° S
YAOGAN 1 2.8 17:25:58 10° SE 17:30:07 46° ENE 17:34:16 10° N
Lacrosse 5 4.1 17:32:09 10° NW 17:35:15 16° NNW 17:38:21 10° NNE
Cosmos 2219 3.5 17:31:48 10° NNW 17:37:21 47° ENE 17:41:21 18° SE
Meteor 2-8 Rocket 4.3 17:33:08 10° S 17:39:10 72° E 17:45:17 10° NNE
Cosmos 1400 Rocket 2.7 17:36:51 10° S 17:40:57 78° E 17:45:05 10° NNE
CZ-4B R/B 4.3 17:38:45 10° NNW 17:41:00 18° WNW 17:43:13 10° WSW
Cosmos 44 3.3 17:38:55 10° SW 17:43:20 74° WNW 17:47:38 12° NNE
Okean-O 2.5 17:38:57 10° SSE 17:43:23 85° ENE 17:47:50 10° NNW
Geosat 3.9 17:38:30 10° NNE 17:43:33 75° ESE 17:48:33 10° SSW
Cosmos 1726 Rocket 4.2 17:39:44 10° SSW 17:43:59 56° W 17:48:18 10° N
Atlas Centaur 2 4.3 17:38:07 10° SSW 17:44:48 26° SSE 17:48:39 19° SE
Cosmos 1745 Rocket 4.1 17:49:49 10° N 17:55:58 54° ENE 18:02:10 10° SSE
Aureole 3 3.5 17:53:31 10° SSW 17:56:54 53° W 17:59:53 10° N
SL-08 R/B 4.3 17:51:21 10° N 17:57:33 78° E 18:03:39 10° S
FALCON 9 DEB 3.2 17:56:35 10° WSW 17:59:47 61° NW 17:59:55 60° NNW
Meteor 2-1 Rocket 4.2 17:54:34 10° SSE 17:59:54 51° E 18:05:13 10° NNE
Meteor 2-15 Rocket 4.5 17:54:30 10° SSE 18:00:26 54° E 18:06:25 10° NNE
OAO 3 Rocket 4.3 17:57:08 10° WSW 18:01:23 32° S 18:02:49 27° SSE
CZ-2C R/B 3.3 18:00:13 10° SSE 18:06:03 82° WSW 18:11:49 10° NNW
FALCON 9 DEB 3.7 18:04:19 10° WSW 18:07:15 47° NW 18:07:15 47° NW
SL-4 R/B 3.8 18:05:25 10° NW 18:08:00 18° N 18:08:01 18° N
ARGOS 3.1 18:09:09 40° SE 18:10:54 60° ENE 18:16:14 10° N
NOSS 3-3 (A) 3.9 18:07:55 10° SSW 18:13:24 52° ESE 18:14:04 49° E
NOSS 3-3 (C) 3.9 18:07:59 10° SSW 18:13:31 51° ESE 18:14:12 49° E
Meteor 2-10 Rocket 3.4 18:08:50 10° S 18:14:14 80° E 18:19:28 10° NNE
Meteor 2-15 4.3 18:08:10 10° S 18:14:18 87° E 18:20:29 10° N
Cosmos 1346 Rocket 4.0 18:10:39 10° N 18:12:50 31° N 18:12:50 31° N
SeaSat 1 2.4 18:14:54 61° E 18:15:19 63° ENE 18:20:13 10° NNW
FALCON 9 DEB 4.2 18:12:22 10° WSW 18:15:00 40° WNW 18:15:00 40° WNW
Cosmos 2227 Rocket 2.1 18:10:01 10° NNW 18:15:40 71° ENE 18:17:08 50° SE
Cosmos 1386 Rocket 4.4 18:09:49 10° N 18:16:15 74° E 18:22:34 10° SSE
USA 215 3.9 18:17:28 34° NE 18:18:53 38° NNE 18:24:50 10° NW
Cosmos 1892 2.9 18:15:24 10° NNW 18:19:16 70° W 18:19:18 70° W
Cosmos 1656 3.8 18:16:10 10° SSW 18:21:41 74° WNW 18:26:21 15° NNE
CSL-04 Rocket 3.8 18:18:15 10° S 18:23:48 79° WSW 18:29:22 10° NNW
Cosmos 1709 Rocket 4.1 18:19:56 10° N 18:25:51 53° ENE 18:25:51 53° ENE
Cosmos 2263 Rocket 4.3 18:23:01 10° N 18:24:14 13° NNE 18:24:14 13° NNE
Cosmos 968 Rocket 3.3 18:21:18 10° NNW 18:26:33 83° ENE 18:26:57 76° SE
ATLAS 2AS CENTAUR R/B 4.1 18:21:34 10° NNW 18:27:27 24° NNE 18:27:53 23° NE
Cosmos 1486 Rocket 4.0 18:27:40 10° NNW 18:33:02 83° WSW 18:33:47 66° S
Cosmos 1697 Rocket 2.6 18:27:48 10° SSW 18:32:53 69° SSE 18:32:53 69° SSE
GEOS 3 Rocket 4.1 18:36:45 43° S 18:38:17 60° WSW 18:43:37 10° NW
H-2A R/B (2) 4.3 17:09:00 10° WSW 18:38:29 47° SSW 18:42:29 34° SE
Cosmos 883 Rocket 4.3 18:34:41 10° S 18:40:51 80° E 18:47:01 10° N
S3M 4.3 18:36:00 10° SSW 18:42:02 63° W 18:48:09 10° N
Milstar 3 3.9 18:46:11 10° WSW 18:51:47 29° S 18:51:54 29° S
Cosmos 2297 Rocket 3.1 18:50:36 10° NW 18:55:57 44° WSW 18:57:47 34° SSW
H-2A R/B 3.4 18:52:36 10° SSW 18:57:36 39° W 19:02:42 10° NNW
Lacrosse 5 4.4 19:17:01 10° NNW 19:18:09 13° NNW 19:18:09 13° NNW
Atlas Centaur 2 4.2 19:26:16 10° WSW 19:31:14 30° SSW 19:31:14 30° SSW
CZ-4C R/B 4.4 19:34:09 10° NNW 19:37:16 23° N 19:37:16 23° N
ATLAS 2AS CENTAUR R/B 4.5 20:12:15 10° NNW 20:15:19 27° NNW 20:15:19 27° NNW
